Weather Roundup
Issued by NWS Chicago, IL

Home | Current Version | Previous Version | Text Only | Print | Product List | Glossary On
Versions: 1 2 3 4 5 6 7 8 9 10 11 12 13 14 15 16 17 18 19 20 21 22 23 24 25 26 27 28 29 30 31 32 33 34 35 36 37 38 39 40 41 42 43 44 45 46 47 48 49 50
000
NZUS59 KLOT 260909
HRRLOT

CHICAGO AREA WEATHER ROUNDUP
NATIONAL WEATHER SERVICE CHICAGO/ROMEOVILLE IL
400 AM CDT FRI AUG 26 2016

NOTE: "FAIR" INDICATES FEW OR NO CLOUDS BELOW 12,000 FEET WITH NO
SIGNIFICANT WEATHER AND/OR OBSTRUCTIONS TO VISIBILITY.

* THESE STATIONS ARE NOT UNDER NWS QUALITY CONTROL. THEY ALSO MAY NOT
  REPORT WEATHER SUCH AS PRECIPITATION OR FOG.

ILZ005-006-012>014-019>023-261000-
NORTHEAST ILLINOIS

CITY           SKY/WX    TMP DP  RH WIND       PRES   REMARKS
OHARE            N/A     67  61  81 N8        30.10R
MIDWAY         CLOUDY    71  63  75 N5        30.10S
AURORA           N/A     63  60  90 CALM      30.11S
LANSING*         N/A     65  65 100 CALM      30.11R
JOLIET*          N/A     66  65  99 CALM      30.11R
WAUKEGAN         N/A     65  61  87 NW3       30.10S
DUPAGE AIRPORT   N/A     64  60  87 N6        30.10S
WHEELING         N/A     66  61  84 NW3       30.11S
KANKAKEE*        N/A     68  66  94 CALM      30.11S
MORRIS*          N/A     64  63  96 CALM      30.10R
LEWIS AIRPORT*   N/A     64  64 100 CALM      30.12R
NORTHERLY ISL    N/A     70  60  70 CALM        N/A
$$

WIZ051-052-058>065-066-070>072-261000-
SOUTHEAST WISCONSIN

CITY           SKY/WX    TMP DP  RH WIND       PRES   REMARKS
MILWAUKEE        N/A     68  61  78 NW6       30.11S
KENOSHA*         N/A     65  61  87 NW5       30.11S
RACINE*          N/A     65  61  87 NW6       30.12S
BURLINGTON       N/A     59  58  98 CALM      30.12S
WAUKESHA         N/A     61  57  88 W5        30.13S
$$

INZ001>003-010>013-019-020-261000-
NORTHWEST INDIANA

CITY           SKY/WX    TMP DP  RH WIND       PRES   REMARKS
GARY*            N/A     66  66 100 N5        30.11R FOG
MICHIGAN CITY* NOT AVBL
RENSSELAER*    NOT AVBL
VALPARAISO       N/A     68  65  90 CALM      30.11S
$$

LMZ740>746-261000-
SOUTHERN LAKE MICHIGAN

STATION/POSITION TIME  SKY/WX   TEMP WIND        PRES    VSBY
                                AIR  DIR/SP/G
                 (UTC)          (F)  (DEG/KT/KT) (MB)    (MI)
HARRISON CRIB    0800            72  330/  7/  8   N/A
BURNHAM HARBOR   0900            69   40/  2/  7   N/A
CALUMET HARBOR   0800            69  230/  1/  2 1018.7F
BURNS HARBOR     0803            71  300/  4/  7 1019.6S
MICHIGAN CITY    0800            72  280/  5/  6   N/A
$$

ABBREVIATIONS USED IN REMARKS
   TC - TEMPERATURE IN CELSIUS
  WCI - WIND CHILL INDEX
   HX - HEAT INDEX
  VSB - VISIBILITY
$$




USA.gov is the U.S. government's official web portal to all federal, state and local government web resources and services.